Torna al catalogo

STARLINK-32180

AttivoComunicazioniVLEO
NORAD 60374·PAYLOAD·🇺🇸 United States

Lanciato Aug 4, 2024 da Vandenberg Space Force Base

Loading…

Prossimi Passaggi (prossime 24 ore)

TLE

AggiornatoSource: CelesTrak SupGP

Epoca: Sep 14, 2026, 22:16 UTC

1 60374C 24138V   26257.92826389 -.00046777  00000+0 -15041-2 0  2579
2 60374  53.1582 149.3260 0001385  82.7141 109.4432 15.31727169    17

Traccia STARLINK-32180 in tempo reale con AllMySat

Download on the App Store